Other Public Products
Issued by NWS Grand Forks, ND

Home | Current Version | Previous Version | Graphics & Text | Print | Product List | Glossary On
Versions: 1 2 3 4 5 6 7 8 9 10 11 12 13 14 15 16 17 18 19 20 21 22 23 24 25 26 27 28 29 30 31 32 33 34 35 36 37 38 39 40 41 42 43 44 45 46 47 48 49 50
000
FPUS83 KFGF 272110
OPUFGF
PRAIRIE TO PINES WEATHER ROUNDUP
NATIONAL WEATHER SERVICE EASTERN NORTH DAKOTA/GRAND FORKS ND
400 PM CDT SAT MAY 27 2017

 **SATELLITE DATA USED TO AUGMENT SKY COVER AT AUTOMATED STATIONS**
 *****  WEATHER ACROSS EASTERN NORTH DAKOTA  *****

CITY           SKY/WX    TMP DP  RH WIND       PRES   REMARKS
GRAND FORKS    PTSUNNY   75  40  28 W16       29.72F
GRAND FORKS AF FAIR      74  40  29 W14       29.73F
GRAND CITY NWS NOT AVBL
BUXTON         NOT AVBL
DEVILS LAKE    FAIR      73  40  30 W15G22    29.73F
FARGO          FAIR      78  37  22 W18       29.76F
WAHPETON ARPT  FAIR      77  34  20 SW13G25   29.80S
$$

 *****  WEATHER ACROSS CENTRAL AND WESTERN NORTH DAKOTA  *****

CITY           SKY/WX    TMP DP  RH WIND       PRES   REMARKS
JAMESTOWN      FAIR      72  41  32 W13G18    29.77F
BISMARCK       PTSUNNY   75  37  25 NW13G22   29.81F
MINOT          LGT RAIN  55  49  80 NW32G51   29.80R
MINOT AFB      HVY RAIN  54  50  87 N26G45    29.81R FOG
GARRISON         N/A     69  38  32 W20       29.77F
WILLISTON      FAIR      74  39  28 NW26G44   29.83R
DICKINSON      PTSUNNY   73  36  25 NW18G33   29.83F
HETTINGER      TSTM      56  44  64 NW10G44   29.93R
$$

 *****  OTHER OBSERVATIONS NORTHEAST NORTH DAKOTA  *****

CITY           SKY/WX    TMP DP  RH WIND       PRES   REMARKS
WALHALLA       NOT AVBL
LANGDON        MOCLDY    73  39  29 SW20G28   29.72S
CAVALIER       FAIR      72  37  28 W17G30    29.70S
GRAFTON        FAIR      73  41  31 W16G22    29.72F
CANDO          NOT AVBL
FORT TOTTEN      N/A     74  40  28 W7        29.95S
ROLLA          FAIR      66  41  39 NW17      29.74S
RUGBY          NOT AVBL
 ***** THE ABOVE OBSERVATIONS ARE NON NWS ARE NOT QUALITY
        CONTROLLED AND MAY MIS-REPORT RAIN FOR SNOW...
$$

 *****  OTHER OBSERVATIONS SOUTHEAST NORTH DAKOTA *****

CITY           SKY/WX    TMP DP  RH WIND       PRES   REMARKS
COOPERSTOWN    FAIR      72  37  28 W17       29.76F
VALLEY CITY    FAIR      73  41  31 W20       29.79F
OAKES          NOT AVBL
GWINNER        PTCLDY    75  37  25 MISG      29.80F
SHEYENNE NWR     N/A     79  40  24 W14       29.95S
BUFFALO        NOT AVBL
WYNDMERE         N/A     75  37  25 SW12        N/A
 ***** THE ABOVE OBSERVATIONS ARE NON NWS ARE NOT QUALITY
       CONTROLLED AND MAY MIS-REPORT RAIN FOR SNOW...
$$

  *****  WEATHER ACROSS NORTHERN MINNESOTA  *****

CITY           SKY/WX    TMP DP  RH WIND       PRES   REMARKS
FLAG ISLAND    LGT RAIN  68  45  42 CALM      29.69S
WARROAD        FAIR      72  43  35 W14G21    29.71S
ROSEAU         FAIR      72  37  28 W9G18     29.72S
HALLOCK        FAIR      73  34  23 W14G22    29.70S
THF RVR FALLS  PTSUNNY   73  38  27 W14       29.75
HALSTAD          N/A     78  39  24 W22         N/A
FOSSTON        FAIR      72  37  28 W14       29.77F
BAUDETTE       FAIR      67  45  45 SW8       29.73S
WASKISH        CLOUDY    72  46  40 SW12      29.76F
CROOKSTON      FAIR      73  39  29 W9        29.74F
$$
  *****  WEATHER ACROSS CENTRAL AND WEST MINNESOTA  *****

CITY           SKY/WX    TMP DP  RH WIND       PRES   REMARKS
BEMIDJI        FAIR      72  36  27 W10G17    29.77F
PARK RAPIDS    FAIR      77  38  24 W10G20    29.79F
WADENA         FAIR      70  41  35 SW9       29.82S
DETROIT LAKES  FAIR      70  37  30 W12       29.81F
MOORHEAD       FAIR      75  34  22 W17G23    29.77F
FERGUS FALLS   FAIR      73  39  29 W13       29.78F
ELBOW LAKE     CLOUDY    71  43  36 W13G22    29.84S
MORRIS MN      FAIR      73  41  31 SW14G20   29.84S
STAPLES        FAIR      68  41  37 S15G22    29.83F
WHEATON        FAIR      75  36  23 SW15G23   29.84F
$$
  *****  WEATHER ELSEWHERE ACROSS MINNESOTA  *****

CITY           SKY/WX    TMP DP  RH WIND       PRES   REMARKS
DULUTH         FAIR      75  40  28 SW13G21   29.82F
INTRNTL FALLS  FAIR      73  36  25 W14G21    29.73F
ELY            FAIR      72  39  30 W10G17    29.79F
CLOQUET        FAIR      73  36  25 SW9G21    29.83F
BRAINERD       CLOUDY    69  40  34 SW13      29.84S
HIBBING        FAIR      70  37  29 W7G18     29.80F
ALEXANDRIA     CLOUDY    70  42  36 SW7       29.86F
SAINT CLOUD    FAIR      71  45  39 SW13      29.85F
MINNEAPOLIS    CLOUDY    69  50  50 S12       29.88F
$$

  *****  WEATHER ACROSS SOUTH DAKOTA  *****

CITY           SKY/WX    TMP DP  RH WIND       PRES   REMARKS
SIOUX FALLS    CLOUDY    67  53  61 VRB6      29.92F
BROOKINGS      CLOUDY    67  45  45 W10       29.90F
WATERTOWN      CLOUDY    68  40  35 SW15      29.89S
HURON          FAIR      71  46  40 S12       29.90F
SISSETON         N/A     74  41  30 NW16G22   29.82F
ABERDEEN       FAIR      77  37  23 SW17G25   29.83F
MITCHELL       FAIR      69  45  41 NW6       29.94S
PIERRE         FAIR      75  37  25 W7        29.89F
MOBRIDGE       LGT RAIN  69  40  34 NW7G24    29.84F
RAPID CITY     FAIR      68  33  27 N12       30.00S
$$

  *****  SOME WEATHER IN NEARBY STATES *****

CITY           SKY/WX    TMP DP  RH WIND       PRES   REMARKS
GLASGOW MT     PTSUNNY   76  33  21 NW24G33   29.91S
GREAT FALLS MT FAIR      73  33  23 W9G21     30.09S
CHEYENNE WY    FAIR      55  36  48 NW15G23   30.16R
SCOTTSBLUFF NE PTSUNNY   61  39  44 N15       30.09R
OMAHA NE       PTSUNNY   71  56  58 NE12      29.87R
DES MOINES IA  PTSUNNY   66  58  75 N15       29.85S
DAVENPORT IA   FAIR      72  60  66 SE6       29.87R
CHICAGO IL     PTSUNNY   77  58  51 E14       29.85F
EAU CLAIRE WI  FAIR      68  46  45 W6        29.86F
LA CROSSE WI   FAIR      74  52  46 NW12      29.85F
$$

  *****  SOME NATIONAL WEATHER *****

CITY           SKY/WX    TMP DP  RH WIND       PRES   REMARKS
LA GUARDIA NY  CLOUDY    70  55  59 S9        29.86S
RALEIGH NC     PTSUNNY   87  67  51 SW10      29.87F HX  90
ATLANTA GA     PTSUNNY   82  67  60 SW14      29.99F
NEW ORLEANS LA FAIR      87  75  67 S14       30.00F HX  96
OKLAHOMA CITY  PTSUNNY   92  72  51 S13       29.73F HX  99
ALBUQUERQUE NM FAIR      82   9   6 W17G24    30.04F
SALT LAKE CITY FAIR      68  36  30 NW14      30.22S
LOS ANGELES CA FAIR      67  54  63 W15       30.06F
BOISE ID       FAIR      75  37  25 S6        30.17S
SEATTLE WA     FAIR      79  50  36 NW10      30.08F
$$

*** WEATHER ACROSS MANITOBA...SASKATCHEWAN AND ONTARIO ***
                ***ONTARIO***

CITY           SKY/WX    TMP DP  RH WIND       PRES   REMARKS
GERALDTON      PTSUNNY   70  55  60 S15G22    29.74R
THUNDER BAY    CLOUDY    66  50  55 E6        29.76F
SIOUX LOOKOUT  PTSUNNY   66  43  42 VRB2      29.72S
TORONTO        PTSUNNY   66  55  68 SE10      29.89S
BIG TROUT LK     N/A     70  45  40 S5          N/A
PICKLE LAKE    PTSUNNY   72  43  35 SW16G25   29.67S
DRYDEN         PTSUNNY   70  37  30 W13G21    29.71S
KENORA         PTSUNNY   66  43  42 S15G31    29.71S
$$
                *** MANITOBA***

CITY           SKY/WX    TMP DP  RH WIND       PRES   REMARKS
BRANDON        PTSUNNY   64  45  48 N16       29.72R
DAUPHIN        PTSUNNY   63  46  55 N13G18    29.70R
ISLAND LAKE    PTSUNNY   63  48  59 N5        29.61S
PILOT MOUND      N/A     59  45  58 W9          N/A
THE PAS        LGT RAIN  50  45  81 NW14      29.71R
THOMPSON       CLOUDY    50  46  87 N10       29.65R
WINNIPEG       PTSUNNY   68  41  37 W15       29.68F
LYNN LAKE      CLOUDY    45  41  87 N9        29.74S
CHURCHILL      CLOUDY    39  36  87 NE12      29.74S
GILLAM         LGT RAIN  55  50  82 N6        29.62S
$$
                ***SASKATCHEWAN***

CITY           SKY/WX    TMP DP  RH WIND       PRES   REMARKS
ESTEVAN        MOSUNNY   59  46  63 VRB6      29.80F
KINDERSLEY     MOSUNNY   75  37  25 N18G28    29.89S
LLOYDMINSTER   MOSUNNY   72  39  30 N22       29.91R
PRINCE ALBERT  MOSUNNY   68  41  37 N20G31    29.80R
REGINA         MOSUNNY   70  30  23 N35G43    29.80R
YORKTON          N/A     64  37  36 NW17G28   29.73S



USA.gov is the U.S. government's official web portal to all federal, state and local government web resources and services.